Airfield :
LOGIN :

Register | Disclaimer

   EN    FR    IT 

 










Legend :    VFR   Marginal VFR   IFR   Intensive IFR   Very Intensive IFR
Visi :
Ceiling :
>= 8 km
>= 3000ft
5 to 8 km
1000 to 3000 ft
1500m to 5 km
500 to 1000 ft
800 to 1500m
200 to 500 ft
< 800m
< 200 ft
Symbols :   Thunderstorms  Fog  Heavy snow  Heavy precipitations  Wind > 20 kt
SIGMETs :     Misc.  Thunderstorms  Icing  Turbulence  Mountain Waves  Volcanic Ashes







- Airport Elevation : 106 ft
- IATA code : XDA
- Download approach charts


LFBY - Dax Seyresse

CURRENT METAR :
  • 170400Z AUTO VRB03KT 0700 // FEW005/// SCT012/// BKN020/// ///TCU 09/09 Q1016

EXPIRED METARs :
  • 170330Z AUTO 24008KT 3400 // FEW014/// BKN023/// BKN046/// ///TCU 09/09 Q1016
  • 170300Z AUTO 24007KT 1800 // SCT013/// BKN019/// BKN024/// ///TCU 09/08 Q1016
  • 170230Z AUTO 24005KT 3500 // SCT023 BKN031 BKN041 09/08 Q1016
  • 170200Z AUTO 24005KT 220V280 9999 // SCT026/// SCT033/// BKN047/// ///TCU 09/07 Q1016
  • 170130Z AUTO 23007KT 200V260 9999 // SCT027 BKN032 BKN049 10/07 Q1016

Expired Forecast.
No reported NOTAMs for that airfield.



MET'MAP, your aeronautical weather chart ! - Copyright ORBIFLY December 2007 - Disclaimer

ORBIFLY MET'MAP TEAM :

Programming & Development : Alexandra Zaïnal
Concept & Development : Baudouin d'Aumeries
Co-Development & Prog : Marc-Olivier Méhu
Technical & hardware support : Manuel Goepfert

Contact : metmap@orbifly.com




SOURCES & CREDITS :

   NOAA